Change the Weather History Date:

Wednesday, January 9, 2008

  Actual Average Record
Temperature  
Mean Temperature 48 °F 50 °F  
Max Temperature 51 °F 56 °F 71 °F (1962)
Min Temperature 44 °F 44 °F 33 °F (1957)
Degree Days  
Heating Degree Days 17 15  
Month to date heating degree days 138 135  
Since 1 July heating degree days 1172 1145  
Cooling Degree Days 0 0  
Month to date cooling degree days 0 0  
Year to date cooling degree days 0 0  
Moisture  
Dew Point 46 °F    
Average Humidity 87    
Maximum Humidity 93    
Minimum Humidity 80    
Precipitation  
Precipitation 0.01 in 0.14 in 1.31 in (1995)
Month to date precipitation 3.19 1.24  
Year to date precipitation 3.19 1.24  
Since 1 July precipitation 8.55 8.81  
Snow  
Snow 0.00 in - 0.00 in ()
Month to date snowfall 0.0  
Since 1 July snowfall 0.0  
Snow Depth 0.00 in    
Sea Level Pressure  
Sea Level Pressure 30.25 in    
Wind  
Wind Speed 3 mph (NNW)    
Max Wind Speed 13 mph    
Max Gust Speed 15 mph    
Visibility 7 miles    
Events Rain    
T = Trace of Precipitation, MM = Missing Value Source: NWS Daily Summary

Daily Weather History Graph

Daily Weather History Graph

Search for Another Location

Airport or City:

Trip Planner

Search our weather history database for the weather conditions in past years. The results will help you decide how hot, cold, wet, or windy it might be!

Date:

Astronomy

Jan. 09, 2008 Rise Set
Actual Time 7:24 AM PST 5:08 PM PST
Civil Twilight 6:55 AM PST 5:37 PM PST
Nautical Twilight 6:23 AM PST 6:09 PM PST
Astronomical Twilight 5:51 AM PST 6:41 PM PST
Moon 8:29 AM PST (1/9) 6:31 PM PST (1/9)
Length of Visible Light 10h 41m
Length of Day
9h 43m
New Moon, 2% of the Moon is Illuminated
Jan 9
New Moon
Jan 15
First Quarter
Jan 22
Full
Jan 29
Last Quarter
Feb 6
New

Hourly Weather History & Observations

Time (PST) Temp. Windchill Dew Point Humidity Pressure Visibility Wind Dir Wind Speed Gust Speed Precip Events Conditions
12:56 AM 51.1 °F - 46.0 °F 83% 30.21 in 9.0 mi WSW 10.4 mph - N/A   Scattered Clouds
1:30 AM 48.2 °F - 46.4 °F 93% 30.21 in 9.0 mi Calm Calm - N/A   Mostly Cloudy
1:39 AM 50.0 °F - 46.4 °F 87% 30.22 in 8.0 mi Calm Calm - N/A   Scattered Clouds
1:56 AM 50.0 °F - 46.0 °F 86% 30.23 in 8.0 mi West 4.6 mph - N/A   Scattered Clouds
2:19 AM 50.0 °F - 46.4 °F 87% 30.23 in 8.0 mi Calm Calm - N/A   Mostly Cloudy
2:56 AM 50.0 °F - 46.0 °F 86% 30.24 in 10.0 mi WNW 5.8 mph - N/A   Mostly Cloudy
3:32 AM 50.0 °F - 46.4 °F 87% 30.24 in 9.0 mi NNW 4.6 mph - N/A   Scattered Clouds
3:56 AM 48.9 °F - 46.0 °F 90% 30.24 in 7.0 mi NNW 3.5 mph - N/A   Partly Cloudy
4:56 AM 46.0 °F 44.8 °F 44.1 °F 93% 30.23 in 6.0 mi SSW 3.5 mph - N/A   Clear
5:56 AM 46.9 °F - 44.1 °F 90% 30.23 in 9.0 mi Calm Calm - N/A   Partly Cloudy
6:56 AM 45.0 °F - 43.0 °F 93% 30.24 in 9.0 mi Calm Calm - N/A   Partly Cloudy
7:56 AM 46.9 °F - 45.0 °F 93% 30.26 in 8.0 mi Calm Calm - N/A   Mostly Cloudy
8:56 AM 48.0 °F - 45.0 °F 89% 30.27 in 7.0 mi Calm Calm - N/A   Mostly Cloudy
9:56 AM 48.9 °F - 46.0 °F 90% 30.30 in 5.0 mi Calm Calm - N/A   Overcast
10:04 AM 48.2 °F - 46.4 °F 93% 30.30 in 4.0 mi Calm Calm - N/A   Mostly Cloudy
10:56 AM 48.9 °F - 46.0 °F 90% 30.31 in 3.0 mi North 4.6 mph - N/A   Mostly Cloudy
11:56 AM 48.9 °F - 46.0 °F 90% 30.30 in 4.0 mi North 8.1 mph - N/A   Mostly Cloudy
12:56 PM 50.0 °F - 46.0 °F 86% 30.28 in 5.0 mi NNE 5.8 mph - N/A   Overcast
1:56 PM 48.9 °F - 46.0 °F 90% 30.25 in 6.0 mi NE 6.9 mph - N/A   Overcast
2:56 PM 48.9 °F - 46.0 °F 90% 30.26 in 5.0 mi NNW 3.5 mph - N/A   Overcast
3:56 PM 50.0 °F - 44.1 °F 80% 30.25 in 6.0 mi Calm Calm - N/A   Haze
4:03 PM 50.0 °F - 44.6 °F 82% 30.24 in 8.0 mi Calm Calm - N/A   Mostly Cloudy
4:56 PM 48.9 °F - 46.0 °F 90% 30.25 in 6.0 mi ENE 3.5 mph - N/A   Mostly Cloudy
5:56 PM 48.0 °F - 45.0 °F 89% 30.26 in 7.0 mi North 5.8 mph - N/A   Overcast
6:56 PM 48.9 °F - 46.0 °F 90% 30.25 in 7.0 mi North 3.5 mph - N/A   Overcast
7:56 PM 48.9 °F - 46.0 °F 90% 30.27 in 7.0 mi North 4.6 mph - N/A   Overcast
8:04 PM 48.2 °F - 44.6 °F 87% 30.27 in 7.0 mi NNW 3.5 mph - N/A   Overcast
8:56 PM 48.2 °F - 46.4 °F 93% 30.25 in 5.0 mi Calm Calm - N/A   Overcast
9:56 PM 48.9 °F - 46.0 °F 90% 30.25 in 5.0 mi Calm Calm - 0.00 in   Overcast
10:56 PM 48.9 °F - 46.0 °F 90% 30.26 in 5.0 mi Calm Calm - 0.00 in Rain Light Rain
11:56 PM 48.9 °F - 46.0 °F 90% 30.26 in 6.0 mi Calm Calm - 0.01 in   Overcast